• In Netherlands
  • List of Countries
  • For 7 days
  • Water Temperature
  • Satellite Maps
  • Weather Map
  • Weather Widgets
  • user-avatar
    Login

    Hourly Weather Albany

    Today, 29 March, Wednesday

    Time Temperature Precipitation Wind Pressure Humidity
    00:00 +14°C° 0 mm 6 mps 763 mmHg 62%
    01:00 +14°C° 0 mm 6 mps 763 mmHg 61%
    02:00 +14°C° 0 mm 5 mps 764 mmHg 61%
    03:00 +13°C° 0 mm 5 mps 764 mmHg 60%
    04:00 +13°C° 0 mm 5 mps 764 mmHg 60%
    05:00 +13°C° 0 mm 4 mps 765 mmHg 59%
    06:00 +13°C° 0 mm 4 mps 765 mmHg 59%
    07:00 +14°C° 0 mm 4 mps 766 mmHg 58%
    08:00 +14°C° 0 mm 4 mps 766 mmHg 56%
    09:00 +15°C° 0 mm 4 mps 766 mmHg 53%
    10:00 +17°C° 0 mm 3 mps 766 mmHg 50%
    11:00 +18°C° 0 mm 3 mps 766 mmHg 47%
    12:00 +18°C° 0 mm 3 mps 766 mmHg 46%
    13:00 +18°C° 0 mm 3 mps 766 mmHg 46%
    14:00 +19°C° 0 mm 4 mps 766 mmHg 45%
    15:00 +18°C° 0 mm 4 mps 766 mmHg 48%
    16:00 +17°C° 0 mm 4 mps 766 mmHg 50%
    17:00 +17°C° 0 mm 4 mps 766 mmHg 53%
    18:00 +15°C° 0 mm 4 mps 766 mmHg 57%
    19:00 +14°C° 0 mm 4 mps 767 mmHg 61%
    20:00 +13°C° 0 mm 3 mps 767 mmHg 65%
    21:00 +12°C° 0 mm 3 mps 767 mmHg 67%
    22:00 +12°C° 0 mm 4 mps 767 mmHg 69%
    23:00 +12°C° 0 mm 4 mps 767 mmHg 70%

    Tomorrow, 30 March, Thursday

    Time Temperature Precipitation Wind Pressure Humidity
    00:00 +12°C° 0 mm 4 mps 767 mmHg 72%
    01:00 +11°C° 0 mm 4 mps 767 mmHg 73%
    02:00 +11°C° 0 mm 4 mps 766 mmHg 75%
    03:00 +11°C° 0 mm 4 mps 766 mmHg 75%
    04:00 +11°C° 0 mm 4 mps 766 mmHg 75%
    05:00 +10°C° 0 mm 4 mps 766 mmHg 76%
    06:00 +11°C° 0 mm 4 mps 766 mmHg 72%
    07:00 +12°C° 0 mm 4 mps 766 mmHg 68%
    08:00 +13°C° 0 mm 4 mps 766 mmHg 65%
    09:00 +15°C° 0 mm 4 mps 766 mmHg 57%
    10:00 +19°C° 0 mm 3 mps 765 mmHg 49%
    11:00 +21°C° 0 mm 2 mps 765 mmHg 41%
    12:00 +23°C° 0 mm 2 mps 765 mmHg 38%
    13:00 +24°C° 0 mm 2 mps 764 mmHg 36%
    14:00 +25°C° 0 mm 2 mps 763 mmHg 34%
    15:00 +23°C° 0 mm 2 mps 763 mmHg 40%
    16:00 +21°C° 0 mm 3 mps 763 mmHg 45%
    17:00 +20°C° 0 mm 3 mps 763 mmHg 51%
    18:00 +18°C° 0 mm 3 mps 764 mmHg 58%
    19:00 +17°C° 0 mm 2 mps 764 mmHg 66%
    20:00 +15°C° 0 mm 2 mps 765 mmHg 73%
    21:00 +15°C° 0 mm 2 mps 765 mmHg 76%
    22:00 +14°C° 0 mm 2 mps 765 mmHg 80%
    23:00 +13°C° 0 mm 1 mps 765 mmHg 83%

    Day after tomorrow, 31 March, Friday

    Time Temperature Precipitation Wind Pressure Humidity
    00:00 +13°C° 0 mm 1 mps 765 mmHg 84%
    01:00 +13°C° 0 mm 1 mps 765 mmHg 85%
    02:00 +12°C° 0 mm 1 mps 765 mmHg 87%
    03:00 +13°C° 0 mm 2 mps 765 mmHg 86%
    04:00 +13°C° 0 mm 2 mps 765 mmHg 86%
    05:00 +13°C° 0 mm 2 mps 765 mmHg 86%
    06:00 +14°C° 0 mm 2 mps 765 mmHg 80%
    07:00 +15°C° 0 mm 2 mps 765 mmHg 75%
    08:00 +17°C° 0 mm 3 mps 766 mmHg 70%
    09:00 +18°C° 0 mm 3 mps 766 mmHg 64%
    10:00 +19°C° 0 mm 3 mps 766 mmHg 59%
    11:00 +21°C° 0 mm 3 mps 766 mmHg 54%
    12:00 +21°C° 0 mm 3 mps 766 mmHg 54%
    13:00 +21°C° 0 mm 3 mps 766 mmHg 53%
    14:00 +21°C° 0 mm 4 mps 765 mmHg 53%
    15:00 +21°C° 0 mm 4 mps 765 mmHg 58%
    16:00 +20°C° 0 mm 4 mps 765 mmHg 62%
    17:00 +19°C° 0 mm 5 mps 766 mmHg 67%
    18:00 +17°C° 0 mm 5 mps 766 mmHg 73%
    19:00 +16°C° 0 mm 5 mps 766 mmHg 79%
    20:00 +15°C° 0 mm 5 mps 767 mmHg 86%
    21:00 +15°C° 0.1 mm 5 mps 767 mmHg 87%
    22:00 +15°C° 0.1 mm 5 mps 767 mmHg 88%
    23:00 +15°C° 0.1 mm 5 mps 767 mmHg 89%

    1 April, Saturday

    Time Temperature Precipitation Wind Pressure Humidity
    00:00 +15°C° 0.1 mm 5 mps 767 mmHg 89%
    01:00 +15°C° 0.1 mm 5 mps 767 mmHg 89%
    02:00 +15°C° 0.1 mm 5 mps 767 mmHg 89%
    03:00 +15°C° 0 mm 5 mps 767 mmHg 89%
    04:00 +15°C° 0 mm 5 mps 767 mmHg 89%
    05:00 +15°C° 0 mm 5 mps 767 mmHg 88%
    06:00 +15°C° 0 mm 5 mps 767 mmHg 86%
    07:00 +16°C° 0 mm 5 mps 767 mmHg 84%
    08:00 +16°C° 0 mm 5 mps 768 mmHg 82%
    09:00 +19°C° 0 mm 6 mps 767 mmHg 73%
    10:00 +20°C° 0 mm 6 mps 767 mmHg 64%
    11:00 +22°C° 0 mm 6 mps 767 mmHg 56%
    12:00 +22°C° 0 mm 6 mps 766 mmHg 53%
    13:00 +23°C° 0 mm 6 mps 766 mmHg 51%
    14:00 +24°C° 0 mm 6 mps 765 mmHg 48%
    15:00 +23°C° 0 mm 6 mps 765 mmHg 53%
    16:00 +22°C° 0 mm 6 mps 765 mmHg 57%
    17:00 +21°C° 0 mm 7 mps 765 mmHg 62%
    18:00 +20°C° 0 mm 7 mps 765 mmHg 68%
    19:00 +18°C° 0 mm 7 mps 765 mmHg 74%
    20:00 +17°C° 0 mm 7 mps 765 mmHg 79%
    21:00 +16°C° 0 mm 7 mps 765 mmHg 81%
    22:00 +16°C° 0 mm 7 mps 765 mmHg 83%
    23:00 +16°C° 0 mm 6 mps 765 mmHg 85%

    2 April, Sunday

    Time Temperature Precipitation Wind Pressure Humidity
    00:00 +16°C° 0 mm 6 mps 765 mmHg 85%
    01:00 +16°C° 0 mm 6 mps 765 mmHg 85%
    02:00 +16°C° 0 mm 6 mps 764 mmHg 85%
    03:00 +15°C° 0 mm 6 mps 764 mmHg 82%
    04:00 +15°C° 0 mm 5 mps 764 mmHg 78%
    05:00 +15°C° 0 mm 5 mps 764 mmHg 74%
    06:00 +16°C° 0 mm 5 mps 764 mmHg 66%
    07:00 +17°C° 0 mm 5 mps 764 mmHg 58%
    08:00 +19°C° 0 mm 6 mps 765 mmHg 50%
    09:00 +21°C° 0 mm 5 mps 764 mmHg 44%
    10:00 +23°C° 0 mm 5 mps 764 mmHg 39%
    11:00 +26°C° 0 mm 5 mps 764 mmHg 34%
    12:00 +27°C° 0 mm 4 mps 763 mmHg 32%
    13:00 +28°C° 0 mm 4 mps 763 mmHg 30%
    14:00 +29°C° 0 mm 4 mps 762 mmHg 28%
    15:00 +28°C° 0 mm 5 mps 762 mmHg 32%
    16:00 +27°C° 0 mm 5 mps 762 mmHg 36%
    17:00 +26°C° 0 mm 5 mps 762 mmHg 40%
    18:00 +25°C° 0 mm 5 mps 762 mmHg 45%
    19:00 +22°C° 0 mm 5 mps 763 mmHg 50%
    20:00 +20°C° 0 mm 5 mps 763 mmHg 55%
    21:00 +20°C° 0 mm 5 mps 763 mmHg 55%
    22:00 +19°C° 0 mm 5 mps 763 mmHg 56%
    23:00 +19°C° 0 mm 5 mps 762 mmHg 56%

    3 April, Monday

    Time Temperature Precipitation Wind Pressure Humidity
    00:00 +19°C° 0 mm 4 mps 762 mmHg 53%
    01:00 +18°C° 0 mm 4 mps 762 mmHg 50%
    02:00 +18°C° 0 mm 3 mps 762 mmHg 48%
    03:00 +18°C° 0 mm 3 mps 762 mmHg 47%
    04:00 +18°C° 0 mm 3 mps 762 mmHg 47%
    05:00 +18°C° 0 mm 3 mps 762 mmHg 46%
    06:00 +18°C° 0 mm 3 mps 763 mmHg 46%
    07:00 +19°C° 0 mm 3 mps 763 mmHg 46%
    08:00 +20°C° 0 mm 3 mps 763 mmHg 46%
    09:00 +22°C° 0 mm 3 mps 763 mmHg 44%
    10:00 +25°C° 0 mm 2 mps 763 mmHg 41%
    11:00 +27°C° 0 mm 2 mps 763 mmHg 39%
    12:00 +27°C° 0 mm 3 mps 763 mmHg 43%
    13:00 +27°C° 0 mm 3 mps 763 mmHg 47%
    14:00 +27°C° 0 mm 4 mps 763 mmHg 51%
    15:00 +25°C° 0 mm 4 mps 763 mmHg 58%
    16:00 +23°C° 0 mm 4 mps 763 mmHg 66%
    17:00 +22°C° 0 mm 4 mps 763 mmHg 73%
    18:00 +20°C° 0 mm 4 mps 764 mmHg 80%
    19:00 +19°C° 0 mm 4 mps 764 mmHg 86%
    20:00 +18°C° 0 mm 4 mps 765 mmHg 92%
    21:00 +18°C° 0 mm 4 mps 765 mmHg 91%
    22:00 +18°C° 0 mm 4 mps 765 mmHg 89%
    23:00 +19°C° 0 mm 4 mps 765 mmHg 88%
    Show more